This is the latest recevied weather packets stored in our database for station/object KC3WWU. If no packets are shown the sender has not sent any weather packets the latest 10 day(s).
| Time | Temp. | Humidity | Pressure | Rain* | Wind** | Luminosity | Snow |
|---|---|---|---|---|---|---|---|
| 1777517115 | 10.56° C | 99% | 1006.1 hPa | 0 mm | - | 0 W/m² | - |
| 1777516812 | 10.56° C | 99% | 1006.2 hPa | 0 mm | - | 0 W/m² | - |
| 1777516508 | 10.56° C | 99% | 1005.9 hPa | 0 mm | - | 0 W/m² | - |
| 1777516204 | 10.56° C | 99% | 1005.8 hPa | 0 mm | - | 0 W/m² | - |
| 1777515901 | 10.56° C | 99% | 1006 hPa | 0 mm | - | 0 W/m² | - |
| 1777515597 | 10.56° C | 99% | 1005.9 hPa | 0 mm | - | 0 W/m² | - |
| 1777515295 | 10.56° C | 99% | 1006.1 hPa | 0 mm | - | 0 W/m² | - |
| 1777514990 | 10.56° C | 99% | 1006.4 hPa | 0 mm | - | 0 W/m² | - |
| 1777514687 | 10.56° C | 99% | 1006.2 hPa | 0 mm | - | 0 W/m² | - |
| 1777514384 | 10.56° C | 99% | 1006 hPa | 0 mm | - | 0 W/m² | - |
| 1777514081 | 10.56° C | 99% | 1006.2 hPa | 3.05 mm | - | 0 W/m² | - |
| 1777513778 | 11.11° C | 99% | 1005.9 hPa | 3.05 mm | - | 0 W/m² | - |
| 1777513475 | 11.67° C | 99% | 1006 hPa | 1.78 mm | - | 0 W/m² | - |
| 1777513172 | 11.67° C | 99% | 1005.8 hPa | 10.67 mm | - | 0 W/m² | - |
| 1777512867 | 11.67° C | 99% | 1005.7 hPa | 10.67 mm | - | 0 W/m² | - |
| 1777512564 | 11.67° C | 99% | 1005.5 hPa | 3.05 mm | - | 0 W/m² | - |
| 1777512261 | 11.67° C | 99% | 1005.6 hPa | 0 mm | - | 0 W/m² | - |
| 1777511958 | 11.67° C | 99% | 1005.5 hPa | 0 mm | - | 0 W/m² | - |
| 1777511656 | 11.67° C | 99% | 1005.4 hPa | 0 mm | - | 0 W/m² | - |
| 1777511354 | 11.67° C | 99% | 1005.3 hPa | 0 mm | - | 0 W/m² | - |
| 1777511054 | 11.67° C | 99% | 1005.4 hPa | 0 mm | - | 0 W/m² | - |
| 1777510750 | 11.67° C | 99% | 1005.3 hPa | 0 mm | - | 0 W/m² | - |
| 1777510448 | 11.11° C | 99% | 1005.3 hPa | 0 mm | - | 0 W/m² | - |
| 1777510143 | 11.67° C | 99% | 1005 hPa | 0 mm | - | 0 W/m² | - |
| 1777509840 | 11.67° C | 99% | 1004.7 hPa | 0 mm | - | 0 W/m² | - |
* Rain latest hour (hover to see other rain measurements)
** Current wind speed in m/s (hover to see current wind gust speed)